[[{"header":{"parameterUnit":"m.s-1","parameterCategory":2,"la1":30.2991,"la2":30.254,"lo1":-89.0895,"lo2":-89.0444,"dy":0.0017,"dx":0.0017,"nx":28,"ny":28,"refTime":"2025-02-01T03:00:00:Z","depth":"0","parameterNumber":2,"parameterNumberName":"U-component_of_CURRENTS"},"data":[0,0,0,0,0,0,0,0,0,0,0,0,0,0,0,0,0,0,0,0,0,0,0,0,0,0,0,0,0,0,0,0,0,0,0,0,0,0,0,0,0,0,0,0,0,0,0,0,0,0,0,0,0,0,0,0,0,0,0.1716,0.1715,0,0.1661,0.166,0.1659,0.1617,0.1616,0.1616,0.1616,0.1506,0.1503,0.15,0,0,0,0,0,0,0,0,0,0,0,0,0,0.173,0.173,0.1716,0.1715,0.1715,0.1661,0.166,0.1659,0.1617,0.1616,0.1616,0.1616,0.1507,0.1503,0.15,0,0,0,0,0,0,0,0,0,0,0,0,0,0.1701,0.173,0.1716,0.169,0.1687,0.1661,0.166,0.1658,0.1617,0.1616,0.1616,0.1616,0.1508,0.1504,0.1499,0.1476,0,0,0.1486,0.1484,0,0,0,0,0,0,0,0,0.1703,0.17,0.1694,0.1692,0.1689,0.1648,0.1624,0.1596,0.1617,0.164,0.1616,0.1616,0.1551,0.1543,0.1529,0.147,0.1466,0.1486,0.1483,0.1481,0.148,0,0,0,0,0,0,0,0.1705,0.1702,0.169,0.1694,0.1691,0.1663,0.1659,0.1618,0.1593,0.1638,0.1635,0.1635,0.1548,0.1533,0.1526,0.1464,0.1486,0.1482,0.148,0.1478,0.1377,0.1376,0,0,0,0,0,0,0.1722,0.1704,0.1692,0.1689,0.1699,0.1663,0.1658,0.1659,0.1594,0.1586,0.1635,0.1633,0.154,0.1531,0.1522,0.1504,0.1481,0.1477,0.1475,0.1377,0.1376,0.1376,0,0,0,0,0,0,0.1722,0.1721,0.1694,0.1698,0.1693,0.1664,0.1664,0.1658,0.1642,0.1594,0.1583,0.1627,0.154,0.1528,0.1489,0.1499,0.1476,0.1472,0.1377,0.1377,0.1376,0.1459,0,0,0,0,0,0,0.1723,0.1722,0.1722,0.1699,0.1694,0.1678,0.1664,0.1657,0.1644,0.1641,0.1583,0.1573,0.1539,0.1496,0.1485,0.1492,0.1468,0.1377,0.1377,0.1376,0.1456,0.1461,0.1466,0,0,0,0,0,0.1723,0.1724,0.1723,0.1721,0.1698,0.1679,0.1672,0.1648,0.1644,0.1634,0.1601,0.1574,0.1486,0.1492,0.1479,0.1486,0.1377,0.1377,0.1376,0.1454,0.146,0.1466,0,0,0,0,0,0,0.1716,0.1719,0.1717,0.1715,0.17,0.1673,0.1663,0.1652,0.1618,0.1617,0.1571,0.1558,0.1531,0.1491,0.1498,0.1454,0.1428,0.1425,0.1491,0.1496,0.1501,0.1541,0.1465,0,0,0,0,0,0.1721,0.173,0.1719,0.1715,0.1712,0.169,0.1679,0.1668,0.164,0.1625,0.1589,0.155,0.1519,0.1495,0.146,0.143,0.1454,0.1424,0.1429,0.1434,0.1456,0.1509,0.1523,0.1375,0.1375,0.1375,0,0,0.1719,0.172,0.1725,0.1716,0.1703,0.1706,0.1682,0.1671,0.1671,0.1618,0.16,0.1567,0.1516,0.1492,0.1475,0.1458,0.1489,0.1433,0.1438,0.1458,0.1511,0.1526,0.1539,0.1375,0.1375,0.1375,0,0,0.1732,0.172,0.1742,0.1733,0.1727,0.1712,0.1713,0.1692,0.1679,0.1657,0.1629,0.1611,0.1543,0.1527,0.1506,0.1514,0.1519,0.1487,0.1538,0.159,0.1604,0.1617,0.1681,0.1699,0.1484,0.1484,0.1484,0,0.1733,0.1756,0.1739,0.1755,0.1753,0.1721,0.1738,0.1717,0.1685,0.1682,0.1659,0.1611,0.1569,0.1564,0.1566,0.153,0.1563,0.1524,0.1602,0.1615,0.1626,0.1689,0.1708,0.1488,0.1487,0.1487,0.1486,0,0.1775,0.1782,0.1788,0.1805,0.1794,0.1797,0.1776,0.1762,0.1743,0.1731,0.1721,0.1677,0.1653,0.1633,0.1599,0.1648,0.1649,0.1613,0.16,0.1647,0.1709,0.1727,0.1493,0.1492,0.1491,0.149,0,0,0.1822,0.1822,0.1825,0.1834,0.1824,0.1818,0.1815,0.181,0.1816,0.1788,0.1806,0.1766,0.1754,0.1731,0.1695,0.1732,0.1841,0.1711,0.1711,0.1799,0.198,0.1947,0.1964,0.1826,0.1829,0.1831,0.1997,0,0.1868,0.1898,0.1888,0.1907,0.1921,0.1887,0.1887,0.1872,0.1851,0.1852,0.1832,0.1824,0.1785,0.1778,0.1816,0.1822,0.189,0.1801,0.19,0.1904,0.1889,0.1983,0.1885,0.2021,0.2014,0.2017,0.202,0,0.1942,0.1942,0.1969,0.1963,0.1967,0.1966,0.1959,0.1952,0.1941,0.193,0.1932,0.1908,0.1943,0.1904,0.1996,0.1942,0.1985,0.2002,0.2008,0.1965,0.1905,0.1967,0.2054,0.1887,0.2047,0.2045,0.2043,0,0.2003,0.2011,0.2027,0.2025,0.2007,0.2008,0.1996,0.198,0.1974,0.1981,0.1986,0.2017,0.2023,0.2088,0.2102,0.2067,0.2217,0.2166,0.2195,0.2193,0.2123,0.2109,0.208,0.2284,0.2283,0.2283,0.2283,0,0.207,0.2087,0.2051,0.2056,0.2069,0.2046,0.2057,0.2046,0.2038,0.2038,0.203,0.2041,0.2071,0.2127,0.2164,0.2238,0.2275,0.2247,0.2245,0.2146,0.2133,0.1991,0.1948,0.2289,0.2288,0.2287,0.2286,0,0.2139,0.2121,0.2136,0.2108,0.2099,0.2104,0.2077,0.2076,0.2073,0.2076,0.2082,0.2088,0.2149,0.2193,0.229,0.2304,0.2294,0.2404,0.2288,0.227,0.2116,0.2082,0.2031,0.1998,0.2478,0.2478,0.2479,0,0.2176,0.2188,0.2164,0.2153,0.2136,0.2127,0.2114,0.2098,0.2086,0.2093,0.2096,0.2146,0.2154,0.2289,0.2332,0.2431,0.2308,0.2401,0.2311,0.213,0.2092,0.1956,0.1922,0.2263,0.2262,0.2261,0.226,0,0.2222,0.2213,0.22,0.218,0.2162,0.2148,0.2125,0.2124,0.2099,0.2102,0.2104,0.2115,0.2199,0.2218,0.2325,0.2365,0.2225,0.2378,0.222,0.1967,0.179,0.1747,0.2136,0.2249,0.225,0.2251,0.2251,0.2252,0.2237,0.2236,0.2206,0.2187,0.2169,0.2147,0.2128,0.2104,0.209,0.2052,0.2084,0.2073,0.2088,0.2201,0.2205,0.2116,0.2164,0.2046,0.2043,0.1935,0.1825,0.22,0.2275,0.2277,0.2278,0.2279,0.2279,0,0.2224,0.2214,0.2204,0.2167,0.2142,0.2137,0.2109,0.2074,0.204,0.2025,0.2005,0.1965,0.1933,0.1917,0.1866,0.1774,0.1684,0.1703,0.147,0.1478,0.1835,0.174,0.1664,0.1664,0.1664,0.1665,0.1665,0.1665,0.221,0.2188,0.218,0.213,0.2108,0.2058,0.2037,0.1998,0.198,0.189,0.1834,0.179,0.1695,0.1516,0.1347,0.135,0.1202,0.1157,0.1173,0.1366,0.1394,0.1421,0.1315,0.1151,0.1151,0.0707,0.0704,0.0701]},{"header":{"parameterUnit":"m.s-1","parameterCategory":2,"la1":30.2991,"la2":30.254,"lo1":-89.0895,"lo2":-89.0444,"dy":0.0017,"dx":0.0017,"nx":28,"ny":28,"refTime":"2025-02-01T03:00:00:Z","depth":"0","parameterNumber":3,"parameterNumberName":"V-component_of_CURRENTS"},"data":[0,0,0,0,0,0,0,0,0,0,0,0,0,0,0,0,0,0,0,0,0,0,0,0,0,0,0,0,0,0,0,0,0,0,0,0,0,0,0,0,0,0,0,0,0,0,0,0,0,0,0,0,0,0,0,0,0,0,-0.0125,-0.0124,0,-0.0079,-0.0078,-0.0078,-0.0035,-0.0035,-0.0034,-0.0034,0.0071,0.0073,0.0075,0,0,0,0,0,0,0,0,0,0,0,0,0,-0.0244,-0.0241,-0.0125,-0.0124,-0.0124,-0.0079,-0.0078,-0.0078,-0.0035,-0.0035,-0.0034,-0.0034,0.007,0.0073,0.0076,0,0,0,0,0,0,0,0,0,0,0,0,0,-0.0194,-0.024,-0.0125,-0.0098,-0.0095,-0.0079,-0.0078,-0.0078,-0.0035,-0.0035,-0.0034,-0.0033,0.0069,0.0073,0.0076,0.0083,0,0,0.0087,0.0088,0,0,0,0,0,0,0,0,-0.0197,-0.0189,-0.0102,-0.0099,-0.0096,-0.0062,-0.0082,-0.0021,-0.0036,-0.0058,-0.0034,-0.0033,0.0031,0.0038,0.0044,0.0088,0.0093,0.0087,0.0089,0.0091,0.0092,0,0,0,0,0,0,0,-0.02,-0.0192,-0.0106,-0.0102,-0.0098,-0.0111,-0.0102,-0.0071,-0.0017,-0.0056,-0.0052,-0.0048,0.0033,0.0041,0.0047,0.0094,0.0087,0.009,0.0092,0.0094,0.0172,0.0172,0,0,0,0,0,0,-0.0203,-0.0194,-0.0108,-0.0105,-0.0146,-0.0109,-0.01,-0.0074,-0.0018,-0.0009,-0.0049,-0.0046,0.0034,0.0043,0.0051,0.0094,0.0091,0.0094,0.0096,0.0172,0.0172,0.0172,0,0,0,0,0,0,-0.0206,-0.0195,-0.011,-0.0151,-0.0141,-0.0107,-0.0079,-0.0073,-0.0064,-0.0014,-0.0004,-0.0045,0.0035,0.0046,0.0083,0.0098,0.0096,0.0099,0.0172,0.0172,0.0172,0.0161,0,0,0,0,0,0,-0.0209,-0.0196,-0.0181,-0.015,-0.0138,-0.0098,-0.008,-0.0073,-0.0062,-0.0059,-0.0007,0.0003,0.0037,0.0077,0.0086,0.0102,0.0101,0.0172,0.0172,0.0172,0.0161,0.016,0.016,0,0,0,0,0,-0.0213,-0.0185,-0.018,-0.017,-0.0117,-0.0098,-0.0093,-0.0068,-0.0063,-0.0058,-0.0024,0.0002,0.0083,0.008,0.009,0.0108,0.0172,0.0172,0.0172,0.0161,0.016,0.016,0,0,0,0,0,0,-0.0219,-0.0177,-0.0171,-0.013,-0.0119,-0.0091,-0.0081,-0.0074,-0.0046,-0.0039,0.0003,0.0016,0.0054,0.0075,0.007,0.0128,0.0131,0.0133,0.012,0.0119,0.0118,0.0137,0.0104,0,0,0,0,0,-0.0218,-0.0189,-0.0164,-0.0133,-0.0129,-0.0112,-0.0102,-0.0089,-0.0061,-0.0049,-0.0017,0.002,0.006,0.0084,0.0118,0.0148,0.0175,0.0165,0.0164,0.0163,0.0184,0.0235,0.0242,0.0172,0.0172,0.0172,0,0,-0.0208,-0.0186,-0.0166,-0.0135,-0.0123,-0.0106,-0.0103,-0.0088,-0.0069,-0.0041,-0.0006,0.0019,0.0066,0.0105,0.0124,0.0127,0.019,0.0163,0.0162,0.0184,0.0236,0.0243,0.0249,0.0172,0.0172,0.0172,0,0,-0.0182,-0.0161,-0.0134,-0.0128,-0.0116,-0.0104,-0.0104,-0.0084,-0.0071,-0.0046,-0.0015,0.0019,0.0065,0.0111,0.0139,0.0153,0.0183,0.0153,0.0172,0.022,0.0227,0.0234,0.0248,0.0256,0.0155,0.0155,0.0155,0,-0.0172,-0.0133,-0.0127,-0.0111,-0.0099,-0.0104,-0.0082,-0.0072,-0.0044,-0.0024,-0.0034,0.0048,0.0077,0.015,0.0152,0.0156,0.0174,0.0172,0.0221,0.0228,0.0235,0.0249,0.0258,0.0154,0.0154,0.0154,0.0154,0,-0.0132,-0.0109,-0.0097,-0.0071,-0.0063,-0.0046,-0.0037,-0.0029,-0.0025,-0.0007,0.0043,0.0075,0.0131,0.0135,0.0151,0.0215,0.0206,0.0212,0.0226,0.0242,0.0255,0.0264,0.0154,0.0154,0.0154,0.0154,0,0,-0.0075,-0.0066,-0.0061,-0.0053,-0.0041,-0.0027,-0.0005,0.0026,0.0052,0.0063,0.0111,0.0159,0.0167,0.02,0.0218,0.0255,0.0298,0.0251,0.0253,0.027,0.0383,0.037,0.0379,0.0313,0.0315,0.0317,0.0362,0,-0.0041,-0.0013,-0.001,0.0019,0.0034,0.0032,0.0057,0.0078,0.0093,0.0131,0.0162,0.021,0.0195,0.022,0.0255,0.0301,0.0328,0.0284,0.0363,0.0365,0.0356,0.0392,0.0424,0.0468,0.0371,0.0373,0.0374,0,0.0005,0.0015,0.0044,0.006,0.0068,0.0085,0.0122,0.0143,0.0187,0.02,0.0244,0.0263,0.0327,0.03,0.0387,0.0358,0.0371,0.0391,0.0393,0.0401,0.0372,0.0443,0.0489,0.0432,0.0389,0.0388,0.0387,0,0.0033,0.0058,0.0079,0.0084,0.0101,0.0119,0.0134,0.0169,0.0194,0.0248,0.0274,0.034,0.0378,0.042,0.0445,0.0424,0.0528,0.0505,0.0502,0.0499,0.0556,0.0555,0.0569,0.0565,0.0565,0.0565,0.0564,0,0.0068,0.0087,0.009,0.0099,0.0132,0.0139,0.018,0.0201,0.0245,0.0285,0.0312,0.0359,0.0411,0.0464,0.0477,0.0526,0.0556,0.0524,0.0526,0.0547,0.0544,0.0521,0.0498,0.0566,0.0566,0.0566,0.0565,0,0.0088,0.0092,0.0113,0.0131,0.014,0.016,0.0193,0.0223,0.026,0.0314,0.0333,0.0395,0.0468,0.0507,0.0582,0.057,0.0602,0.0616,0.0616,0.0618,0.0547,0.0523,0.0583,0.0554,0.0626,0.0626,0.0626,0,0.0096,0.0106,0.0126,0.0136,0.0142,0.0171,0.0191,0.0227,0.0256,0.0334,0.0363,0.0446,0.0505,0.0602,0.0632,0.0672,0.0626,0.0683,0.0653,0.0565,0.0541,0.0519,0.0488,0.0709,0.071,0.0711,0.0711,0,0.0103,0.0108,0.0118,0.0139,0.0158,0.0187,0.0216,0.0242,0.029,0.0337,0.041,0.0468,0.057,0.0658,0.0702,0.0706,0.0656,0.0694,0.0633,0.064,0.0596,0.0561,0.062,0.0717,0.0717,0.0716,0.0716,0.0716,0.0098,0.0105,0.0113,0.0136,0.0162,0.0195,0.0218,0.0255,0.0305,0.0384,0.0436,0.0551,0.068,0.0766,0.0719,0.0697,0.0689,0.068,0.0666,0.0655,0.0615,0.0663,0.074,0.074,0.074,0.0739,0.0739,0,0.0081,0.0088,0.0108,0.0134,0.0161,0.018,0.0227,0.0257,0.031,0.0416,0.0488,0.0707,0.0768,0.0804,0.0826,0.0717,0.0646,0.0647,0.0631,0.0603,0.0683,0.0671,0.0704,0.0704,0.0704,0.0704,0.0704,0.0704,0.0067,0.0071,0.0084,0.0119,0.0145,0.0182,0.0208,0.0266,0.0349,0.0522,0.068,0.0803,0.1009,0.0893,0.0785,0.0701,0.0589,0.0582,0.0504,0.0555,0.0556,0.0557,0.0539,0.0544,0.0544,0.0435,0.0434,0.0433]}],[{"header":{"parameterUnit":"m.s-1","parameterCategory":2,"la1":30.2991,"la2":30.254,"lo1":-89.0895,"lo2":-89.0444,"dy":0.0017,"dx":0.0017,"nx":28,"ny":28,"refTime":"2025-02-01T03:00:00:Z","depth":"2","parameterNumber":2,"parameterNumberName":"U-component_of_CURRENTS"},"data":[0,0,0,0,0,0,0,0,0,0,0,0,0,0,0,0,0,0,0,0,0,0,0,0,0,0,0,0,0,0,0,0,0,0,0,0,0,0,0,0,0,0,0,0,0,0,0,0,0,0,0,0,0,0,0,0,0,0,0.0595,0.0595,0,0.0599,0.0599,0.0599,0.0616,0.0616,0.0617,0.0617,0.0643,0.0643,0.0643,0,0,0,0,0,0,0,0,0,0,0,0,0,0.0602,0.0601,0.0595,0.0595,0.0595,0.0599,0.0599,0.0599,0.0616,0.0616,0.0617,0.0617,0.0643,0.0643,0.0643,0,0,0,0,0,0,0,0,0,0,0,0,0,0.0601,0.0601,0.0595,0.0604,0.0605,0.0599,0.0599,0.0599,0.0615,0.0616,0.0617,0.0618,0.0643,0.0643,0.0643,0.0631,0,0,0.0644,0.0645,0,0,0,0,0,0,0,0,0.0601,0.06,0.0603,0.0604,0.0605,0.0609,0.0611,0.0611,0.0615,0.061,0.0617,0.0618,0.0634,0.0635,0.0632,0.0633,0.0634,0.0645,0.0645,0.0645,0.0645,0,0,0,0,0,0,0,0.0601,0.06,0.0595,0.0603,0.0604,0.0609,0.061,0.0611,0.0617,0.0611,0.0612,0.0615,0.0634,0.0632,0.0633,0.0634,0.0645,0.0645,0.0645,0.0645,0.0678,0.0679,0,0,0,0,0,0,0.0601,0.06,0.0595,0.0596,0.0606,0.0609,0.0609,0.0606,0.0617,0.062,0.0614,0.0615,0.0631,0.0632,0.0634,0.066,0.0645,0.0645,0.0645,0.0677,0.0678,0.0679,0,0,0,0,0,0,0.0601,0.0601,0.0595,0.0599,0.0599,0.0608,0.0604,0.0606,0.0607,0.0619,0.0622,0.0614,0.0631,0.0633,0.0647,0.066,0.0645,0.0646,0.0677,0.0678,0.0679,0.0687,0,0,0,0,0,0,0.0601,0.06,0.0599,0.0599,0.0599,0.059,0.0603,0.0605,0.0607,0.0609,0.062,0.0623,0.0632,0.0646,0.0647,0.066,0.0646,0.0676,0.0677,0.0678,0.0686,0.0688,0.069,0,0,0,0,0,0.0602,0.0588,0.0599,0.0598,0.0596,0.0589,0.0589,0.0598,0.0607,0.0602,0.0621,0.0623,0.0655,0.0647,0.0648,0.0661,0.0675,0.0677,0.0678,0.0685,0.0688,0.069,0,0,0,0,0,0,0.0585,0.0588,0.06,0.0588,0.0592,0.0593,0.0587,0.0596,0.0605,0.061,0.0625,0.0629,0.0649,0.0651,0.0642,0.0676,0.0668,0.067,0.0673,0.0675,0.0678,0.0689,0.0646,0,0,0,0,0,0.0583,0.0577,0.0584,0.0575,0.0575,0.0583,0.0582,0.0589,0.0597,0.0601,0.0614,0.0633,0.0654,0.0661,0.0675,0.0684,0.0712,0.0696,0.0698,0.07,0.0711,0.0766,0.0774,0.0684,0.0684,0.0684,0,0,0.0575,0.0576,0.0574,0.0573,0.0575,0.0577,0.0583,0.0579,0.0592,0.0602,0.0621,0.0638,0.0659,0.0679,0.0688,0.0683,0.074,0.0702,0.0703,0.0713,0.0768,0.0777,0.0785,0.0685,0.0685,0.0684,0,0,0.0554,0.0557,0.0547,0.0551,0.0556,0.0565,0.0565,0.0571,0.0584,0.0599,0.0623,0.0649,0.0665,0.0693,0.0708,0.0727,0.0751,0.073,0.0747,0.08,0.0808,0.0816,0.0862,0.0874,0.0729,0.0729,0.0729,0,0.0548,0.0541,0.0543,0.0539,0.0549,0.0561,0.0564,0.0575,0.059,0.0614,0.0607,0.0669,0.0676,0.0729,0.0736,0.0733,0.0767,0.0734,0.0804,0.0812,0.0819,0.0865,0.0878,0.0729,0.0729,0.0729,0.0729,0,0.0522,0.0526,0.0517,0.0527,0.0535,0.0535,0.0558,0.0575,0.0595,0.0619,0.067,0.0687,0.0732,0.0734,0.0738,0.0799,0.0807,0.0801,0.0797,0.0829,0.0875,0.0888,0.073,0.073,0.073,0.073,0,0,0.0498,0.0501,0.0503,0.0516,0.0534,0.0539,0.0567,0.0606,0.0643,0.0663,0.0719,0.0748,0.0771,0.079,0.0805,0.084,0.0911,0.0842,0.0844,0.0888,0.1034,0.0927,0.0931,0.0921,0.0924,0.0925,0.1045,0,0.0486,0.0481,0.0491,0.0508,0.0513,0.0547,0.0579,0.0619,0.0658,0.0713,0.0753,0.0805,0.079,0.0819,0.0855,0.0903,0.0946,0.0879,0.0997,0.1,0.0902,0.0943,0.0812,0.0897,0.1057,0.106,0.1061,0,0.0467,0.0471,0.0478,0.0518,0.0525,0.0544,0.0615,0.0645,0.0725,0.0759,0.0821,0.0858,0.0928,0.0902,0.101,0.0971,0.1008,0.1034,0.1039,0.0946,0.0917,0.0892,0.0915,0.1083,0.1081,0.108,0.1078,0,0.0456,0.0471,0.0481,0.0491,0.053,0.0558,0.0592,0.0664,0.0704,0.08,0.0842,0.093,0.0977,0.1043,0.1087,0.1066,0.1197,0.1177,0.112,0.1113,0.1028,0.1008,0.126,0.126,0.126,0.1259,0.1259,0,0.0443,0.0457,0.0479,0.0485,0.052,0.0556,0.0611,0.0661,0.0739,0.0795,0.0868,0.0921,0.1014,0.109,0.1129,0.1161,0.1239,0.1136,0.1139,0.1024,0.1004,0.118,0.1169,0.1264,0.1263,0.1262,0.1261,0,0.0429,0.0439,0.0456,0.0495,0.0512,0.0541,0.0607,0.0648,0.0725,0.0801,0.0835,0.0941,0.1031,0.1112,0.1222,0.1197,0.125,0.1243,0.1092,0.1072,0.1125,0.1114,0.1202,0.1199,0.1197,0.1195,0.1193,0,0.042,0.0422,0.0456,0.0468,0.0486,0.0529,0.0561,0.0636,0.0677,0.08,0.0833,0.0946,0.099,0.1102,0.1102,0.1156,0.123,0.106,0.0974,0.1127,0.1122,0.1114,0.1105,0.0883,0.0879,0.0876,0.0874,0,0.0404,0.0416,0.0427,0.0448,0.0475,0.0506,0.0555,0.0582,0.0673,0.0732,0.0811,0.0854,0.0924,0.0901,0.0943,0.0954,0.1033,0.0988,0.1231,0.0886,0.0827,0.0821,0.0824,0.0844,0.0847,0.0849,0.0851,0.0852,0.0395,0.0397,0.0407,0.0428,0.0454,0.0477,0.0496,0.0539,0.0589,0.0648,0.0715,0.0723,0.0744,0.0705,0.0738,0.0763,0.0819,0.0794,0.0805,0.082,0.0729,0.0665,0.0637,0.0639,0.064,0.0642,0.0643,0,0.0376,0.0379,0.0388,0.0405,0.0416,0.045,0.0487,0.0487,0.0517,0.0533,0.0561,0.0469,0.0456,0.0528,0.0488,0.049,0.0504,0.0507,0.0523,0.0549,0.0573,0.0472,0.0312,0.0311,0.0311,0.0311,0,0,0.0365,0.0356,0.0354,0.0358,0.0381,0.0396,0.0412,0.0407,0.0399,0.0338,0.0306,0.0328,0.0393,0.0302,0.0325,0.0318,0.0431,0.0301,0.0551,0.0587,0.0611,0.0706,0.0574,0,0,0,0,0]},{"header":{"parameterUnit":"m.s-1","parameterCategory":2,"la1":30.2991,"la2":30.254,"lo1":-89.0895,"lo2":-89.0444,"dy":0.0017,"dx":0.0017,"nx":28,"ny":28,"refTime":"2025-02-01T03:00:00:Z","depth":"2","parameterNumber":3,"parameterNumberName":"V-component_of_CURRENTS"},"data":[0,0,0,0,0,0,0,0,0,0,0,0,0,0,0,0,0,0,0,0,0,0,0,0,0,0,0,0,0,0,0,0,0,0,0,0,0,0,0,0,0,0,0,0,0,0,0,0,0,0,0,0,0,0,0,0,0,0,0.0135,0.0135,0,0.0117,0.0116,0.0116,0.0092,0.0091,0.0091,0.0091,0.008,0.008,0.008,0,0,0,0,0,0,0,0,0,0,0,0,0,0.0144,0.0144,0.0135,0.0135,0.0135,0.0117,0.0116,0.0116,0.0092,0.0091,0.0091,0.009,0.008,0.008,0.008,0,0,0,0,0,0,0,0,0,0,0,0,0,0.0135,0.0144,0.0135,0.012,0.0118,0.0117,0.0116,0.0116,0.0092,0.0091,0.0091,0.009,0.008,0.008,0.008,0.0096,0,0,0.0081,0.0081,0,0,0,0,0,0,0,0,0.0136,0.0135,0.0122,0.0121,0.0119,0.0105,0.0115,0.011,0.0092,0.0103,0.0091,0.009,0.0089,0.0088,0.0088,0.0096,0.0096,0.0081,0.0081,0.0081,0.0081,0,0,0,0,0,0,0,0.0136,0.0135,0.0129,0.0122,0.012,0.0111,0.0109,0.0114,0.0101,0.0102,0.01,0.0097,0.0088,0.0088,0.0087,0.0095,0.0081,0.0081,0.0082,0.0082,0.011,0.011,0,0,0,0,0,0,0.0138,0.0136,0.0129,0.0128,0.0124,0.0112,0.011,0.0111,0.0101,0.0098,0.0097,0.0095,0.0088,0.0087,0.0087,0.01,0.0081,0.0082,0.0082,0.0109,0.011,0.011,0,0,0,0,0,0,0.0138,0.0138,0.013,0.0131,0.0129,0.0112,0.0114,0.0111,0.0107,0.0097,0.0095,0.0096,0.0087,0.0087,0.0094,0.0099,0.0082,0.0082,0.0108,0.0109,0.011,0.0129,0,0,0,0,0,0,0.0139,0.0138,0.0139,0.0131,0.0129,0.0133,0.0114,0.0111,0.0106,0.0103,0.0095,0.0094,0.0086,0.0094,0.0094,0.0099,0.0082,0.0108,0.0109,0.011,0.0127,0.013,0.0133,0,0,0,0,0,0.0139,0.0143,0.014,0.0139,0.0132,0.0133,0.0132,0.0118,0.0107,0.0111,0.0105,0.0094,0.0101,0.0095,0.0095,0.01,0.0107,0.0108,0.011,0.0126,0.013,0.0132,0,0,0,0,0,0,0.0147,0.0141,0.0137,0.0139,0.0138,0.0129,0.0126,0.012,0.0119,0.0114,0.0104,0.0103,0.011,0.0107,0.01,0.0112,0.0101,0.0103,0.0114,0.0117,0.0119,0.0118,0.0082,0,0,0,0,0,0.015,0.015,0.0147,0.0148,0.0148,0.0139,0.0136,0.013,0.0126,0.0124,0.012,0.0117,0.0118,0.0118,0.0119,0.013,0.0122,0.0133,0.0135,0.0137,0.0138,0.013,0.0131,0.0115,0.0115,0.0115,0,0,0.0152,0.0149,0.0148,0.015,0.0145,0.0151,0.0136,0.0134,0.014,0.0125,0.0131,0.0127,0.0123,0.0132,0.0134,0.0128,0.014,0.0139,0.0141,0.014,0.0131,0.0133,0.0134,0.0116,0.0116,0.0115,0,0,0.0156,0.0155,0.0157,0.0161,0.0158,0.0157,0.0159,0.0156,0.0153,0.0162,0.0151,0.0151,0.0155,0.0152,0.0151,0.0171,0.0155,0.017,0.0181,0.0174,0.0175,0.0176,0.0175,0.0175,0.0171,0.0171,0.0171,0,0.0154,0.0164,0.0158,0.0165,0.0171,0.0162,0.0173,0.0173,0.0173,0.0179,0.0166,0.0172,0.0165,0.0174,0.0175,0.0176,0.017,0.0169,0.0176,0.0177,0.0177,0.0176,0.0176,0.0172,0.0172,0.0172,0.0171,0,0.0164,0.0173,0.0175,0.0183,0.0191,0.0199,0.0201,0.0208,0.0204,0.0206,0.0214,0.0203,0.0207,0.0202,0.0192,0.0195,0.0189,0.018,0.0166,0.018,0.0178,0.0178,0.0173,0.0173,0.0173,0.0172,0,0,0.015,0.0177,0.0176,0.0194,0.0204,0.0214,0.0225,0.0241,0.0257,0.0247,0.0267,0.0252,0.0244,0.0241,0.0228,0.0215,0.021,0.0196,0.0196,0.0192,0.0196,0.0193,0.0193,0.0198,0.0198,0.0198,0.0196,0,0.0157,0.0183,0.0192,0.0222,0.0241,0.0247,0.0265,0.0278,0.0286,0.0305,0.0286,0.03,0.026,0.0265,0.0243,0.0227,0.0209,0.0212,0.0186,0.0186,0.0178,0.0192,0.0173,0.0169,0.0195,0.0195,0.0195,0,0.016,0.0183,0.0213,0.026,0.0267,0.0282,0.0319,0.0336,0.0356,0.0362,0.036,0.0354,0.0341,0.0304,0.0264,0.0266,0.0228,0.0205,0.0204,0.0194,0.0183,0.0159,0.0168,0.0195,0.0195,0.0195,0.0195,0,0.0161,0.0198,0.0227,0.024,0.0285,0.0299,0.0322,0.0349,0.038,0.0399,0.0427,0.0403,0.0408,0.0351,0.0302,0.0281,0.0262,0.0231,0.0191,0.0191,0.0166,0.0163,0.0193,0.0193,0.0193,0.0193,0.0193,0,0.017,0.0193,0.023,0.0248,0.0292,0.0315,0.0362,0.0381,0.0422,0.0473,0.0455,0.0492,0.0417,0.0402,0.0331,0.0273,0.0283,0.0196,0.019,0.0173,0.0172,0.0185,0.0184,0.0193,0.0193,0.0193,0.0193,0,0.017,0.019,0.0231,0.0278,0.0294,0.0325,0.0391,0.0437,0.0463,0.053,0.0542,0.0561,0.0544,0.0475,0.0406,0.0326,0.0264,0.0237,0.0229,0.022,0.0186,0.0186,0.0183,0.0183,0.0182,0.0182,0.0182,0,0.0178,0.0196,0.0249,0.0281,0.0302,0.0352,0.0401,0.0447,0.0505,0.0581,0.0626,0.0634,0.0649,0.0556,0.0426,0.031,0.0295,0.0212,0.0159,0.0191,0.0185,0.0185,0.0186,0.0136,0.0136,0.0135,0.0135,0,0.0198,0.0208,0.0246,0.0308,0.0357,0.0426,0.0495,0.0546,0.0617,0.0679,0.0764,0.0778,0.0688,0.0567,0.0408,0.0326,0.0226,0.0201,0.0244,0.0144,0.0147,0.0141,0.0143,0.0132,0.0132,0.0132,0.0133,0.0133,0.0213,0.0244,0.0291,0.035,0.041,0.0499,0.0563,0.0649,0.0746,0.0847,0.0847,0.0841,0.0671,0.0452,0.0345,0.0226,0.0215,0.0136,0.0137,0.0138,0.0135,0.0138,0.0121,0.0121,0.0121,0.0122,0.0122,0,0.0243,0.0278,0.0338,0.0418,0.0494,0.0513,0.0634,0.0721,0.0841,0.0885,0.0936,0.074,0.0597,0.0443,0.0248,0.0128,0.0121,0.0105,0.01,0.0103,0.0105,0.0101,0.0078,0.0078,0.0078,0.0078,0,0,0.0265,0.0322,0.0357,0.048,0.0532,0.0645,0.0713,0.0841,0.0898,0.0942,0.0889,0.0815,0.0584,0.0419,0.027,0.0186,0.0185,0.0177,0.0216,0.023,0.0235,0.0117,0.0112,0,0,0,0,0]}],[{"header":{"parameterUnit":"m.s-1","parameterCategory":2,"la1":30.2991,"la2":30.254,"lo1":-89.0895,"lo2":-89.0444,"dy":0.0017,"dx":0.0017,"nx":28,"ny":28,"refTime":"2025-02-01T03:00:00:Z","depth":"4","parameterNumber":2,"parameterNumberName":"U-component_of_CURRENTS"},"data":[0,0,0,0,0,0,0,0,0,0,0,0,0,0,0,0,0,0,0,0,0,0,0,0,0,0,0,0,0,0,0,0,0,0,0,0,0,0,0,0,0,0,0,0,0,0,0,0,0,0,0,0,0,0,0,0,0,0,-0.0114,-0.0114,0,-0.0072,-0.0072,-0.0071,-0.0021,-0.002,-0.0019,-0.0018,0.0014,0.0014,0.0014,0,0,0,0,0,0,0,0,0,0,0,0,0,-0.015,-0.0149,-0.0114,-0.0113,-0.0113,-0.0072,-0.0072,-0.0071,-0.0021,-0.002,-0.0019,-0.0018,0.0014,0.0014,0.0014,0,0,0,0,0,0,0,0,0,0,0,0,0,-0.0125,-0.0149,-0.0114,-0.0082,-0.0079,-0.0072,-0.0072,-0.0071,-0.0021,-0.002,-0.0019,-0.0018,0.0014,0.0014,0.0014,-0.0011,0,0,0.0014,0.0014,0,0,0,0,0,0,0,0,-0.0126,-0.0123,-0.0088,-0.0085,-0.0081,-0.005,-0.0072,-0.0051,-0.0022,-0.0044,-0.0018,-0.0017,-0.0009,-0.0007,-0.0003,-0.001,-0.0008,0.0014,0.0014,0.0014,0.0014,0,0,0,0,0,0,0,-0.0128,-0.0125,-0.0098,-0.0087,-0.0083,-0.007,-0.0065,-0.0068,-0.0035,-0.0042,-0.0038,-0.0033,-0.0007,-0.0003,-0.0002,-0.0008,0.0014,0.0014,0.0014,0.0014,0.0018,0.0018,0,0,0,0,0,0,-0.0133,-0.0127,-0.01,-0.0097,-0.01,-0.007,-0.0065,-0.0062,-0.0035,-0.0029,-0.0034,-0.003,-0.0004,-0.0002,-0.0,0.0024,0.0014,0.0014,0.0014,0.0018,0.0018,0.0018,0,0,0,0,0,0,-0.0134,-0.0131,-0.0101,-0.011,-0.0105,-0.0071,-0.0068,-0.0062,-0.003,-0.0028,-0.0022,-0.0006,-0.0003,-0.0001,0.0015,0.0023,0.0014,0.0014,0.0018,0.0018,0.0018,0.0038,0,0,0,0,0,0,-0.0135,-0.0132,-0.0122,-0.0111,-0.0105,-0.0083,-0.0069,-0.0062,-0.003,-0.0025,-0.0003,0.0,-0.0002,0.0015,0.0015,0.0023,0.0015,0.0017,0.0018,0.0018,0.0037,0.0039,0.004,0,0,0,0,0,-0.0137,-0.0133,-0.0121,-0.0117,-0.0095,-0.0082,-0.0078,-0.005,-0.003,-0.0017,-0.0002,0.0001,0.0016,0.0015,0.0016,0.0024,0.0017,0.0018,0.0018,0.0037,0.0038,0.004,0,0,0,0,0,0,-0.0142,-0.0127,-0.0114,-0.0105,-0.0087,-0.0073,-0.0056,-0.0038,-0.0016,-0.0002,0.0002,0.0005,0.0019,0.0017,0.0017,0.0023,0.0016,0.0016,0.0031,0.0032,0.0034,0.0046,0.0015,0,0,0,0,0,-0.014,-0.0132,-0.0115,-0.0105,-0.0093,-0.007,-0.0056,-0.0036,-0.002,-0.0006,0.0009,0.0018,0.0013,0.0022,0.002,0.0026,0.0019,0.0031,0.0032,0.0033,0.0043,0.0039,0.0041,0.0018,0.0018,0.0018,0,0,-0.014,-0.013,-0.0124,-0.0105,-0.0087,-0.0073,-0.0057,-0.003,-0.0015,-0.0009,0.0022,0.0024,0.0015,0.0022,0.0028,0.0026,0.0032,0.0033,0.0034,0.0044,0.0039,0.0041,0.0043,0.0018,0.0018,0.0018,0,0,-0.0142,-0.0124,-0.0116,-0.0101,-0.007,-0.0059,-0.0046,-0.0016,0.0005,0.0027,0.0029,0.0041,0.0048,0.0041,0.0035,0.0042,0.0036,0.0043,0.0066,0.0061,0.0063,0.0065,0.0043,0.0042,0.0048,0.0048,0.0048,0,-0.0138,-0.0129,-0.0111,-0.0099,-0.0082,-0.0051,-0.0035,-0.0019,0.0014,0.003,0.0043,0.0057,0.0053,0.0049,0.0054,0.0046,0.0041,0.0061,0.0064,0.0066,0.0067,0.0044,0.0043,0.0049,0.0048,0.0048,0.0048,0,-0.0139,-0.0122,-0.0114,-0.009,-0.0072,-0.0052,-0.0028,0.0,0.0031,0.0048,0.0072,0.0071,0.0086,0.0077,0.007,0.0076,0.0067,0.0063,0.0062,0.0071,0.0045,0.0044,0.005,0.005,0.0049,0.0049,0,0,-0.0155,-0.0121,-0.0116,-0.0099,-0.0062,-0.0048,-0.0021,0.0008,0.0033,0.0065,0.0091,0.0089,0.0113,0.0108,0.0102,0.0098,0.0095,0.0095,0.0094,0.0076,0.0079,0.0075,0.0074,0.01,0.0101,0.0101,0.0051,0,-0.0155,-0.0136,-0.0116,-0.0089,-0.0073,-0.0037,-0.0017,0.0016,0.0048,0.008,0.0091,0.0114,0.0116,0.0133,0.0131,0.0106,0.0097,0.0109,0.007,0.0069,0.0068,0.0074,0.0102,0.005,0.005,0.005,0.005,0,-0.0163,-0.0146,-0.0123,-0.0082,-0.0069,-0.0045,0.0004,0.0028,0.0071,0.0098,0.0133,0.0151,0.016,0.016,0.0136,0.0149,0.0124,0.0098,0.0096,0.0089,0.0065,0.0043,0.0048,0.0048,0.0048,0.0048,0.0048,0,-0.0191,-0.0151,-0.0132,-0.0118,-0.007,-0.004,-0.0004,0.0043,0.0065,0.0124,0.0141,0.0171,0.0178,0.0169,0.0128,0.0146,0.008,0.0094,0.0059,0.0057,0.0065,0.0064,0.0074,0.0074,0.0074,0.0074,0.0074,0,-0.0204,-0.0191,-0.0135,-0.0125,-0.0088,-0.0042,0.0002,0.0041,0.009,0.0105,0.016,0.0155,0.0185,0.0153,0.0129,0.0084,0.0082,0.0067,0.0051,0.0072,0.0072,0.0063,0.0063,0.0072,0.0073,0.0073,0.0074,0,-0.0244,-0.0211,-0.019,-0.0129,-0.0102,-0.0071,0.0004,0.003,0.0082,0.0101,0.0123,0.0146,0.0127,0.0116,0.0078,0.0073,0.0032,0.0006,0.0008,-0.0008,0.0015,0.0016,0.0001,0.0001,0.0001,0.0,0.0,0,-0.0259,-0.0253,-0.0201,-0.0177,-0.0141,-0.0084,-0.0047,0.0023,0.0041,0.007,0.0062,0.0071,0.008,0.0023,0.0016,-0.0012,-0.002,-0.0031,0.0031,0.0025,0.0011,0.0013,0.0014,-0.0,-0.0,-0.0,-0.0001,0,-0.0292,-0.0279,-0.0264,-0.0216,-0.0169,-0.0128,-0.0071,-0.006,0.0,0.0031,0.0033,0.0047,0.0014,0.0015,-0.0009,-0.004,-0.0003,-0.0034,-0.0032,0.0026,0.0023,0.001,0.0012,-0.0002,-0.0001,-0.0001,-0.0001,0,-0.0312,-0.0316,-0.0291,-0.0242,-0.0206,-0.0168,-0.0134,-0.0093,-0.0059,-0.0009,-0.003,-0.0023,-0.0004,-0.0007,-0.0053,-0.0049,-0.0024,-0.0003,-0.0002,-0.0001,0.0025,0.0022,-0.0012,0,0,0,0,0,-0.0316,-0.0316,-0.0302,-0.0253,-0.0231,-0.0195,-0.0152,-0.012,-0.0076,-0.0068,-0.0029,-0.0049,-0.0039,-0.0053,-0.0045,-0.0069,-0.0046,-0.0062,-0.0027,-0.0008,-0.0006,0.0026,0,0,0,0,0,0,-0.031,-0.0315,-0.0312,-0.0276,-0.0244,-0.0209,-0.0181,-0.0152,-0.0136,-0.0092,-0.0093,-0.0043,-0.0052,-0.0043,-0.0046,-0.0046,-0.002,-0.005,-0.0049,-0.0008,-0.0007,-0.0006,0.0027,0,0,0,0,0]},{"header":{"parameterUnit":"m.s-1","parameterCategory":2,"la1":30.2991,"la2":30.254,"lo1":-89.0895,"lo2":-89.0444,"dy":0.0017,"dx":0.0017,"nx":28,"ny":28,"refTime":"2025-02-01T03:00:00:Z","depth":"4","parameterNumber":3,"parameterNumberName":"V-component_of_CURRENTS"},"data":[0,0,0,0,0,0,0,0,0,0,0,0,0,0,0,0,0,0,0,0,0,0,0,0,0,0,0,0,0,0,0,0,0,0,0,0,0,0,0,0,0,0,0,0,0,0,0,0,0,0,0,0,0,0,0,0,0,0,0.0096,0.0096,0,0.0077,0.0076,0.0076,0.0059,0.0059,0.0059,0.0058,0.0027,0.0026,0.0025,0,0,0,0,0,0,0,0,0,0,0,0,0,0.0114,0.0114,0.0096,0.0096,0.0096,0.0077,0.0076,0.0076,0.0059,0.0059,0.0059,0.0058,0.0027,0.0026,0.0025,0,0,0,0,0,0,0,0,0,0,0,0,0,0.0101,0.0114,0.0096,0.0086,0.0085,0.0077,0.0076,0.0076,0.0059,0.0059,0.0059,0.0058,0.0027,0.0026,0.0025,0.0021,0,0,0.0022,0.0021,0,0,0,0,0,0,0,0,0.0101,0.01,0.0088,0.0087,0.0085,0.0071,0.0071,0.0057,0.0059,0.0067,0.0058,0.0058,0.0042,0.0039,0.0034,0.0019,0.0018,0.0022,0.0021,0.002,0.002,0,0,0,0,0,0,0,0.0102,0.01,0.0087,0.0087,0.0086,0.0081,0.0079,0.0069,0.0054,0.0067,0.0066,0.0066,0.0041,0.0035,0.0033,0.0018,0.0022,0.0021,0.002,0.002,-0.0038,-0.0039,0,0,0,0,0,0,0.0108,0.0101,0.0088,0.0087,0.0095,0.0081,0.0078,0.0075,0.0054,0.0052,0.0066,0.0065,0.0037,0.0035,0.0032,0.0005,0.0021,0.0019,0.0019,-0.0037,-0.0038,-0.0039,0,0,0,0,0,0,0.0108,0.0106,0.0089,0.0095,0.0092,0.0081,0.0077,0.0075,0.0059,0.0054,0.0051,0.0052,0.0037,0.0034,0.0008,0.0004,0.0019,0.0018,-0.0036,-0.0038,-0.0039,-0.0036,0,0,0,0,0,0,0.0108,0.0107,0.01,0.0095,0.0092,0.0076,0.0077,0.0074,0.006,0.0059,0.0041,0.0039,0.0037,0.001,0.0007,0.0003,0.0017,-0.0035,-0.0037,-0.0038,-0.0035,-0.0037,-0.0039,0,0,0,0,0,0.0109,0.0101,0.01,0.0098,0.0085,0.0076,0.0073,0.0064,0.006,0.005,0.0034,0.0039,-0.0002,0.0008,0.0005,0.0001,-0.0034,-0.0036,-0.0038,-0.0034,-0.0037,-0.0039,0,0,0,0,0,0,0.0102,0.0098,0.0097,0.0087,0.0079,0.0073,0.0063,0.0058,0.0038,0.0032,0.0027,0.0023,-0.0001,-0.0006,0.0006,-0.0023,-0.0017,-0.002,-0.0013,-0.0015,-0.0017,0.0001,0.0016,0,0,0,0,0,0.0099,0.0093,0.0089,0.008,0.0075,0.0067,0.006,0.0054,0.004,0.0031,0.0019,0.0004,-0.001,-0.0017,-0.0032,-0.0047,-0.0045,-0.0053,-0.0055,-0.0056,-0.0045,-0.0055,-0.0056,-0.0045,-0.0045,-0.0045,0,0,0.0094,0.0092,0.0087,0.0078,0.0071,0.0063,0.0061,0.0047,0.0039,0.0031,0.0008,-0.0006,-0.0018,-0.0036,-0.0046,-0.0039,-0.006,-0.0059,-0.006,-0.0048,-0.0057,-0.0058,-0.0059,-0.0047,-0.0046,-0.0046,0,0,0.0085,0.0077,0.0071,0.0065,0.0056,0.0051,0.0045,0.0032,0.0022,0.0003,-0.0007,-0.0025,-0.0045,-0.0054,-0.0059,-0.0082,-0.0073,-0.0088,-0.0077,-0.0087,-0.0088,-0.0088,-0.0089,-0.0089,-0.0085,-0.0085,-0.0085,0,0.0078,0.0072,0.0066,0.006,0.0057,0.0046,0.0038,0.0027,0.0006,-0.0001,-0.0005,-0.0038,-0.005,-0.0067,-0.0071,-0.0084,-0.0083,-0.0065,-0.0088,-0.0088,-0.0088,-0.0089,-0.009,-0.0085,-0.0085,-0.0085,-0.0085,0,0.0068,0.0062,0.0056,0.0049,0.0041,0.0032,0.0022,0.0008,-0.0002,-0.001,-0.0033,-0.0051,-0.0062,-0.0075,-0.0074,-0.0086,-0.0082,-0.0091,-0.0076,-0.0089,-0.009,-0.009,-0.0085,-0.0085,-0.0085,-0.0085,0,0,0.006,0.0052,0.0051,0.005,0.0036,0.0032,0.0016,0.0004,-0.0003,-0.0024,-0.0033,-0.0056,-0.0057,-0.0064,-0.0074,-0.0082,-0.0085,-0.0079,-0.0079,-0.0069,-0.0096,-0.0087,-0.0087,-0.0093,-0.0093,-0.0093,-0.0096,0,0.0055,0.0052,0.0046,0.0038,0.0034,0.0025,0.0015,0.0002,-0.001,-0.0024,-0.0042,-0.0051,-0.0056,-0.0054,-0.0065,-0.0085,-0.0085,-0.0082,-0.0094,-0.0094,-0.0076,-0.0087,-0.0094,-0.0096,-0.0096,-0.0097,-0.0097,0,0.0047,0.005,0.0048,0.0043,0.004,0.0038,0.0029,0.0021,0.0001,-0.0007,-0.0018,-0.0031,-0.0045,-0.0046,-0.0072,-0.0068,-0.007,-0.0085,-0.0086,-0.0075,-0.0086,-0.0083,-0.0097,-0.0097,-0.0097,-0.0097,-0.0097,0,0.0052,0.0048,0.0052,0.005,0.0044,0.0046,0.0047,0.0031,0.0028,0.0017,0.0011,-0.0013,-0.0019,-0.0036,-0.0057,-0.006,-0.0087,-0.0099,-0.0094,-0.0093,-0.0099,-0.0099,-0.0103,-0.0103,-0.0103,-0.0103,-0.0103,0,0.0049,0.0048,0.0062,0.0065,0.0073,0.0067,0.0074,0.0067,0.006,0.005,0.0034,0.0014,-0.0014,-0.0038,-0.0054,-0.0074,-0.0082,-0.0086,-0.0093,-0.01,-0.01,-0.01,-0.0099,-0.0103,-0.0103,-0.0103,-0.0103,0,0.0042,0.005,0.0057,0.0069,0.0077,0.0088,0.0102,0.0104,0.0099,0.0086,0.0087,0.0043,0.0008,-0.002,-0.0056,-0.0066,-0.0089,-0.0088,-0.0084,-0.0092,-0.0088,-0.0087,-0.0087,-0.0087,-0.0086,-0.0086,-0.0086,0,0.0033,0.0041,0.0069,0.0083,0.0092,0.0113,0.0124,0.0129,0.0125,0.0091,0.0076,0.0047,0.0015,-0.0029,-0.0061,-0.0083,-0.0083,-0.0082,-0.0089,-0.0079,-0.0086,-0.0086,-0.0086,-0.0086,-0.0086,-0.0085,-0.0085,0,0.0018,0.0036,0.0048,0.0087,0.0111,0.0131,0.0145,0.0136,0.0125,0.0126,0.0078,0.005,0.0006,-0.0036,-0.0039,-0.0063,-0.0082,-0.0079,-0.008,-0.0087,-0.0077,-0.0085,-0.0085,-0.0085,-0.0085,-0.0085,-0.0085,0,0.0009,0.0019,0.005,0.0082,0.0121,0.0136,0.0136,0.013,0.0131,0.0092,0.007,0.0025,0.0003,-0.0026,-0.0046,-0.0052,-0.0058,-0.0054,-0.0057,-0.0058,-0.005,-0.0034,-0.0029,0,0,0,0,0,-0.0001,0.0013,0.004,0.0075,0.0119,0.0147,0.0145,0.0137,0.0117,0.0094,0.0088,0.0049,0.0011,-0.0022,-0.0025,-0.0052,-0.0066,-0.0056,-0.0063,-0.008,-0.0081,-0.0076,0,0,0,0,0,0,-0.0008,0.0013,0.0033,0.0078,0.0108,0.0149,0.0153,0.0131,0.0112,0.0088,0.0065,0.0069,0.0027,0.0029,-0.0015,-0.0021,-0.0023,-0.007,-0.007,-0.0079,-0.008,-0.0081,-0.0076,0,0,0,0,0]}]]